Retour au catalogue

ARIANE 2 DEB

ActifGTO
NORAD 33567·DEBRIS·🇫🇷 France

Lancé Jan 27, 1989 depuis Guiana Space Centre

Loading…

TLE

PériméSource: Space-Track

Époque: Sep 11, 2026, 10:42 UTC

1 33567U 89006BK  26254.44608919 -.00000161  00000-0 -19803-3 0  9991
2 33567   8.6758 251.6161 7076094  79.6662   0.0968  2.26335205181169

Suivez ARIANE 2 DEB en temps réel avec AllMySat

Download on the App Store